Regional Weather Roundup
Issued by NWS Little Rock, AR

Home | Current Version | Previous Version | Graphics & Text | Print | Product List | Glossary On
Versions: 1 2 3 4 5 6 7 8 9 10 11 12 13 14 15 16 17 18 19 20 21 22 23 24 25 26 27 28 29 30 31 32 33 34 35 36 37 38 39 40 41 42 43 44 45 46 47 48 49 50
000
ASUS44 KLZK 051805
RWRLZK

WEATHER ROUNDUP FOR ARKANSAS
NATIONAL WEATHER SERVICE LITTLE ROCK AR
1200 PM CST THU MAR 05 2015

NOTE: "FAIR" INDICATES FEW OR NO CLOUDS BELOW 12,000 FEET WITH NO
SIGNIFICANT WEATHER AND/OR OBSTRUCTIONS TO VISIBILITY.

ARZ001-003-010-029-051900-
NORTHWEST ARKANSAS

CITY           SKY/WX    TMP DP  RH WIND       PRES   REMARKS
FAYETTEVILLE   FAIR      31  11  43 N9        30.55S WCI  23
6HR MIN TEMP:  12; 6HR MAX TEMP:  31;

FORT SMITH     FAIR      33  15  47 S5        30.59F WCI  29
6HR MIN TEMP:  18; 6HR MAX TEMP:  35;

HARRISON       FAIR      29   8  41 NW13G21   30.52S WCI  19
6HR MIN TEMP:  17; 6HR MAX TEMP:  29;

BENTONVILLE    FAIR      30  10  43 N8        30.55S WCI  23
6HR MIN TEMP:  16; 6HR MAX TEMP:  30; 6HR PCP:  0.05;

ROGERS         FAIR      31  13  47 N9G17     30.54S WCI  23
6HR MIN TEMP:  12; 6HR MAX TEMP:  32;

SILOAM SPGS    FAIR      30  12  47 NE7       30.56F WCI  23
6HR MIN TEMP:  16; 6HR MAX TEMP:  30; 6HR PCP:  0.05;

HIGHFILL       FAIR      33  12  41 N6        30.54S WCI  28
6HR MIN TEMP:  15; 6HR MAX TEMP:  33;

SPRINGDALE     SUNNY     30  10  43 NW6       30.56S WCI  24
$$

ARZ004-005-016-051900-
NORTH CENTRAL ARKANSAS

CITY           SKY/WX    TMP DP  RH WIND       PRES   REMARKS
BATESVILLE     FAIR      34  10  37 NW12G21   30.55S WCI  25
6HR MIN TEMP:  21; 6HR MAX TEMP:  34;

FLIPPIN        FAIR      30   9  40 N10G16    30.54S WCI  21
6HR MIN TEMP:  19; 6HR MAX TEMP:  30; 6HR PCP:  0.01;

MTN HOME       FAIR      31   8  38 N9G18     30.53S WCI  23
6HR MIN TEMP:  17; 6HR MAX TEMP:  31;

$$

ARZ040-041-051900-
WEST CENTRAL ARKANSAS

CITY           SKY/WX    TMP DP  RH WIND       PRES   REMARKS
MENA           FAIR      34  14  44 NE13G18   30.55S WCI  25
MOUNT IDA      FAIR      34  15  46 N8        30.53S WCI  27
6HR MIN TEMP:  22; 6HR MAX TEMP:  34;

$$

ARZ009-017-025-026-028-051900-
NORTHEAST ARKANSAS

CITY           SKY/WX    TMP DP  RH WIND       PRES   REMARKS
CORNING          N/A     28   9  43 NE6       30.55S WCI  22
JONESBORO      FLURRIES  28   9  44 N10       30.55R WCI  19
6HR MIN TEMP:  21; 6HR MAX TEMP:  28; 6HR PCP: TRACE;

NEWPORT        FAIR      30  14  51 NE7       30.57S WCI  23
6HR MIN TEMP:  22; 6HR MAX TEMP:  31; 6HR PCP:  0.03;

WALNUT RIDGE   FAIR      28   9  43 CALM      30.54F
6HR MIN TEMP:  19; 6HR MAX TEMP:  28; 6HR PCP:  0.17;

BLYTHEVILLE    FAIR      29  20  69 N16       30.56R WCI  17
6HR MIN TEMP:  20; 6HR MAX TEMP:  29; 6HR PCP:  0.01;

$$

ARZ022-023-033-042-044-051900-
CENTRAL ARKANSAS

CITY           SKY/WX    TMP DP  RH WIND       PRES   REMARKS
LITTLE ROCK    FAIR      34  11  38 N16       30.57F WCI  24
6HR MIN TEMP:  22; 6HR MAX TEMP:  34;

N LITTLE ROCK  MOSUNNY   33  16  50 N9G20     30.57F WCI  25
6HR MIN TEMP:  21; 6HR MAX TEMP:  33;

SEARCY         FAIR      33  10  38 N13       30.57F WCI  24
6HR MIN TEMP:  21; 6HR MAX TEMP:  34; 6HR PCP:  0.06;

HOT SPRINGS    FAIR      34  15  46 NE14G21   30.56S WCI  25
6HR MIN TEMP:  22; 6HR MAX TEMP:  34; 6HR PCP: TRACE;

RUSSELLVILLE   FAIR      36  10  34 N13G20    30.56F
6HR MIN TEMP:  21; 6HR MAX TEMP:  36;

CLINTON        FAIR      36   7  30 N8G18     30.56F
$$

ARZ036-051900-
EAST ARKANSAS

CITY           SKY/WX    TMP DP  RH WIND       PRES   REMARKS
WEST MEMPHIS   FAIR      26  17  68 N14       30.54S WCI  14
6HR MIN TEMP:  20; 6HR MAX TEMP:  26;

$$

ARZ050-053-066-070-073-051900-
SOUTHWEST ARKANSAS

CITY           SKY/WX    TMP DP  RH WIND       PRES   REMARKS
ARKADELPHIA    FAIR      34  23  64 NE10      30.59R WCI  26
6HR MIN TEMP:  24; 6HR MAX TEMP:  34; 6HR PCP:  0.07;

CAMDEN         FAIR      36  18  48 MISG      30.57F
TEXARKANA      FAIR      33  27  78 N12G18    30.57F WCI  24
6HR MIN TEMP:  25; 6HR MAX TEMP:  33; 6HR PCP: TRACE;

EL DORADO      FAIR      32  20  61 N14G22    30.55F WCI  22
6HR MIN TEMP:  23; 6HR MAX TEMP:  32;

DE QUEEN       FAIR      37  17  44 NE8G20    30.57S
6HR MIN TEMP:  26; 6HR MAX TEMP:  37;

$$

ARZ056-057-069-051900-
SOUTHEAST ARKANSAS

CITY           SKY/WX    TMP DP  RH WIND       PRES   REMARKS
PINE BLUFF     FAIR      28  13  53 NE16      30.58R WCI  16
6HR MIN TEMP:  21; 6HR MAX TEMP:  28;

STUTTGART      FAIR      28  16  59 N18       30.56S WCI  16
6HR MIN TEMP:  21; 6HR MAX TEMP:  28;

MONTICELLO     FAIR      31  14  49 N8        30.54R WCI  23
6HR MIN TEMP:  24; 6HR MAX TEMP:  32; 6HR PCP: TRACE;


$$





USA.gov is the U.S. government's official web portal to all federal, state and local government web resources and services.